Location: Peterborough
(44.3091°N, 78.3197°W)
Time: 07:02:38
(UTC-04:00)

Vanguard 3 - Pass Details

Date: 02 March 2024
Orbit: 510 x 3234 km, 33.3° (Epoch: 24 April)

Event Time Altitude Azimuth Distance (km) Brightness Sun altitude
Rises 19:11:30 0° 235° (SW) 6,064 12.5 -13.0°
Reaches altitude 10° 19:15:12 10° 231° (SW) 5,345 12.0 -13.6°
Maximum altitude 19:31:35 52° 161° (SSE) 3,706 10.2 -16.5°
Enters shadow 19:44:50 23° 100° (E) 5,046 10.5 -18.9°
